Temp
-8 -8 -8 -8 -8 -8 -8 -8 -8 -8 -8 -8 -8 -8 -8 -9 -9 -9 -9 -9 -9 -10 -10 -10 -11 -11 -11 -11 -10 -10 -10 -10 -10 -10 -10 -10 -10 -10 -10 -10 -9 -9
-8 -8 -8 -8 -8 -8 -8 -8 -8 -8 -8 -8 -8 -8 -9 -9 -9 -9 -9 -9 -10 -10 -10 -10 -11 -11 -11 -11 -10 -10 -10 -10 -10 -10 -10 -10 -10 -10 -10 -10 -10 -10
-8 -8 -8 -8 -8 -8 -8 -8 -8 -8 -8 -8 -9 -9 -9 -9 -9 -10 -10 -10 -10 -10 -10 -10 -11 -11 -11 -11 -11 -10 -10 -10 -10 -10 -10 -10 -10 -10 -10 -10 -10 -10
-8 -8 -8 -8 -8 -8 -8 -8 -8 -8 -8 -9 -9 -9 -9 -9 -10 -10 -10 -10 -10 -10 -10 -10 -11 -11 -10 -11 -11 -11 -11 -11 -11 -11 -11 -11 -10 -10 -10 -10 -10 -10
-8 -8 -8 -8 -8 -8 -8 -8 -8 -8 -9 -9 -9 -9 -9 -9 -10 -10 -10 -10 -10 -11 -11 -11 -11 -11 -11 -11 -11 -11 -11 -12 -11 -11 -11 -11 -11 -11 -11 -10 -10 -11
-8 -8 -8 -8 -8 -8 -8 -8 -8 -9 -9 -9 -9 -9 -9 -9 -10 -10 -10 -10 -11 -11 -11 -11 -11 -11 -11 -11 -11 -11 -11 -12 -12 -11 -11 -11 -11 -11 -11 -11 -11 -11
-8 -8 -8 -8 -8 -8 -8 -8 -9 -9 -9 -9 -9 -9 -9 -9 -10 -10 -11 -11 -11 -11 -11 -11 -11 -12 -12 -12 -11 -11 -12 -12 -12 -11 -11 -11 -12 -12 -11 -11 -11 -11
-8 -8 -8 -8 -8 -8 -8 -9 -9 -9 -9 -9 -9 -9 -9 -10 -10 -10 -11 -11 -11 -11 -11 -11 -12 -12 -12 -12 -12 -12 -12 -12 -12 -12 -12 -12 -12 -12 -12 -12 -11 -11
-8 -8 -8 -8 -8 -8 -9 -9 -9 -9 -9 -9 -10 -10 -10 -10 -10 -10 -11 -11 -11 -11 -11 -12 -12 -12 -12 -12 -12 -12 -12 -12 -12 -12 -12 -12 -12 -12 -12 -12 -11 -11
-8 -8 -8 -8 -8 -9 -9 -9 -9 -9 -9 -10 -10 -10 -10 -10 -10 -10 -11 -11 -11 -11 -12 -12 -12 -12 -12 -12 -12 -12 -12 -12 -12 -12 -12 -12 -12 -12 -12 -12 -12 -11
-9 -9 -9 -9 -9 -9 -9 -9 -9 -9 -10 -10 -10 -10 -10 -10 -10 -10 -11 -11 -11 -11 -12 -12 -12 -12 -12 -12 -12 -12 -12 -12 -12 -12 -12 -13 -12 -12 -12 -12 -12 -12
-9 -9 -9 -9 -9 -9 -9 -9 -9 -10 -10 -10 -10 -10 -10 -10 -10 -11 -11 -12 -12 -12 -12 -12 -12 -12 -13 -13 -13 -13 -13 -13 -13 -13 -13 -13 -13 -13 -13 -12 -12 -12
-9 -9 -9 -9 -9 -9 -9 -9 -10 -10 -10 -10 -10 -10 -11 -11 -11 -11 -12 -12 -12 -12 -12 -13 -13 -13 -13 -13 -13 -13 -13 -13 -13 -13 -13 -13 -13 -13 -13 -13 -12 -12
-9 -9 -9 -9 -9 -9 -10 -10 -10 -10 -10 -10 -10 -11 -11 -11 -11 -12 -12 -12 -12 -13 -13 -13 -13 -13 -13 -13 -13 -13 -13 -13 -13 -13 -13 -14 -13 -13 -13 -13 -12 -12
-9 -9 -9 -9 -10 -10 -10 -10 -10 -10 -10 -10 -10 -11 -11 -12 -12 -12 -13 -13 -13 -13 -13 -13 -13 -14 -14 -14 -14 -13 -13 -13 -13 -13 -14 -14 -13 -13 -13 -13 -12 -12
-9 -9 -9 -10 -10 -10 -10 -10 -10 -10 -10 -11 -11 -11 -11 -12 -13 -13 -13 -13 -13 -13 -13 -13 -14 -14 -14 -14 -14 -14 -13 -13 -13 -14 -14 -14 -13 -13 -13 -13 -12 -12
-9 -9 -10 -10 -10 -10 -10 -10 -10 -11 -11 -11 -11 -12 -12 -13 -13 -13 -13 -13 -13 -14 -14 -14 -14 -14 -14 -14 -14 -14 -13 -13 -13 -14 -14 -14 -13 -13 -13 -13 -12 -12
-9 -10 -10 -10 -10 -10 -10 -10 -11 -11 -11 -12 -12 -12 -13 -13 -14 -14 -14 -13 -14 -14 -14 -14 -14 -14 -14 -14 -14 -14 -14 -14 -14 -14 -14 -14 -13 -13 -13 -13 -12 -12
-10 -10 -10 -10 -10 -10 -10 -10 -11 -11 -11 -12 -12 -13 -14 -14 -14 -14 -14 -14 -14 -14 -14 -14 -14 -15 -15 -14 -14 -14 -14 -14 -14 -14 -14 -14 -13 -13 -13 -13 -12 -12
-10 -10 -10 -10 -10 -10 -10 -11 -11 -11 -12 -12 -13 -13 -14 -14 -14 -14 -14 -14 -14 -14 -15 -15 -15 -15 -15 -14 -14 -14 -14 -14 -14 -14 -14 -14 -14 -13 -13 -13 -12 -12
-10 -10 -10 -10 -10 -10 -11 -11 -11 -12 -12 -13 -13 -14 -14 -14 -14 -14 -14 -14 -15 -15 -15 -15 -15 -15 -15 -14 -14 -14 -14 -14 -14 -14 -14 -14 -14 -14 -13 -13 -12 -12
-10 -10 -10 -10 -10 -11 -11 -11 -12 -12 -13 -13 -13 -14 -14 -15 -15 -15 -15 -15 -15 -15 -15 -15 -15 -15 -15 -15 -14 -14 -14 -14 -14 -14 -14 -14 -14 -14 -13 -13 -13 -12
-10 -10 -10 -11 -11 -11 -11 -12 -12 -13 -13 -13 -14 -14 -14 -15 -15 -15 -15 -15 -15 -15 -15 -15 -15 -15 -15 -15 -15 -15 -14 -14 -14 -14 -14 -15 -15 -14 -13 -13 -13 -12
-10 -11 -11 -11 -11 -11 -11 -12 -12 -13 -13 -13 -14 -14 -14 -14 -15 -15 -15 -15 -15 -15 -15 -15 -15 -15 -15 -15 -15 -15 -14 -14 -14 -14 -14 -15 -15 -14 -14 -13 -13 -12
-11 -11 -11 -11 -11 -11 -12 -12 -13 -13 -13 -14 -14 -14 -14 -14 -15 -15 -15 -15 -15 -15 -15 -15 -15 -15 -15 -15 -15 -15 -15 -14 -14 -14 -14 -15 -15 -15 -14 -13 -13 -12
-11 -11 -11 -11 -11 -12 -12 -12 -13 -13 -14 -14 -14 -14 -14 -14 -15 -15 -15 -15 -15 -15 -15 -15 -15 -15 -15 -15 -15 -15 -15 -14 -14 -14 -14 -15 -15 -15 -14 -14 -13 -13
Height
5884 5882 5880 5878 5876 5874 5871 5869 5867 5865 5862 5860 5857 5854 5850 5847 5843 5840 5836 5833 5831 5828 5826 5824 5821 5820 5818 5817 5816 5815 5813 5811 5810 5809 5808 5809 5809 5808 5808 5808 5808 5809
5881 5879 5877 5875 5873 5871 5868 5866 5864 5861 5859 5856 5853 5850 5846 5843 5840 5836 5833 5829 5826 5824 5821 5819 5817 5815 5813 5812 5811 5810 5808 5807 5805 5804 5803 5804 5804 5803 5803 5803 5802 5803
5877 5875 5874 5871 5869 5867 5865 5863 5860 5857 5855 5852 5849 5846 5842 5839 5835 5832 5829 5825 5822 5819 5817 5814 5812 5810 5809 5807 5806 5805 5804 5802 5800 5798 5797 5797 5798 5798 5798 5798 5797 5798
5874 5872 5870 5868 5866 5864 5861 5859 5856 5854 5851 5848 5845 5842 5838 5834 5831 5827 5824 5821 5817 5814 5812 5810 5808 5806 5804 5802 5800 5799 5798 5797 5795 5793 5792 5791 5792 5793 5792 5791 5791 5792
5870 5868 5866 5864 5862 5860 5857 5855 5852 5849 5846 5843 5840 5837 5834 5830 5826 5823 5819 5816 5813 5810 5807 5805 5803 5801 5799 5797 5795 5793 5792 5791 5790 5788 5786 5785 5785 5786 5785 5785 5784 5785
5866 5864 5862 5860 5858 5856 5853 5850 5848 5845 5842 5839 5836 5833 5829 5825 5822 5818 5815 5812 5808 5805 5803 5800 5798 5796 5794 5792 5790 5788 5786 5785 5784 5783 5781 5779 5779 5779 5779 5778 5777 5778
5862 5860 5858 5856 5854 5851 5849 5846 5843 5840 5837 5834 5831 5828 5825 5821 5817 5814 5811 5808 5804 5802 5799 5796 5794 5792 5790 5788 5785 5783 5781 5779 5778 5777 5776 5774 5772 5772 5772 5771 5771 5771
5858 5856 5854 5851 5849 5847 5844 5841 5838 5835 5832 5829 5826 5823 5820 5816 5813 5809 5806 5804 5801 5798 5795 5792 5790 5787 5785 5783 5781 5779 5776 5775 5773 5771 5770 5768 5766 5765 5765 5764 5764 5764
5854 5851 5849 5847 5845 5842 5840 5837 5834 5831 5828 5824 5821 5818 5815 5812 5808 5805 5801 5799 5796 5793 5790 5788 5785 5783 5780 5778 5776 5774 5772 5770 5768 5766 5764 5763 5761 5759 5758 5758 5758 5757
5849 5847 5844 5842 5840 5838 5835 5832 5830 5826 5823 5820 5816 5813 5810 5806 5803 5800 5797 5794 5791 5788 5785 5783 5780 5778 5776 5773 5771 5769 5767 5765 5763 5761 5759 5757 5755 5753 5752 5751 5751 5751
5845 5842 5840 5837 5835 5833 5830 5827 5824 5821 5818 5815 5812 5808 5804 5801 5798 5795 5792 5789 5786 5783 5780 5777 5775 5773 5771 5768 5766 5764 5762 5760 5758 5756 5754 5752 5750 5748 5747 5746 5745 5745
5841 5838 5835 5832 5830 5828 5825 5822 5819 5816 5813 5810 5807 5803 5799 5796 5792 5789 5786 5783 5780 5777 5775 5772 5770 5768 5766 5763 5761 5759 5757 5755 5753 5751 5749 5747 5745 5743 5741 5740 5739 5738
5836 5833 5830 5828 5825 5823 5820 5817 5814 5811 5808 5805 5802 5798 5794 5790 5787 5784 5781 5778 5775 5772 5769 5767 5765 5763 5761 5758 5756 5754 5752 5750 5748 5746 5744 5741 5739 5737 5736 5735 5733 5732
5831 5829 5826 5823 5820 5818 5815 5812 5809 5806 5803 5800 5796 5793 5789 5785 5782 5779 5775 5772 5769 5767 5764 5762 5760 5758 5756 5754 5751 5750 5748 5746 5744 5742 5739 5736 5734 5732 5730 5729 5727 5726
5827 5824 5821 5818 5816 5813 5810 5807 5804 5801 5798 5794 5791 5788 5784 5781 5777 5774 5770 5767 5764 5762 5759 5757 5755 5753 5751 5749 5747 5745 5743 5742 5739 5737 5734 5731 5729 5727 5725 5724 5722 5721
5822 5819 5816 5814 5811 5808 5805 5802 5799 5795 5792 5789 5785 5782 5779 5776 5773 5769 5766 5763 5760 5757 5755 5752 5751 5749 5747 5745 5742 5741 5739 5737 5735 5733 5730 5727 5723 5721 5720 5719 5717 5715
5818 5815 5812 5809 5806 5803 5800 5797 5793 5790 5786 5783 5780 5776 5773 5770 5768 5765 5762 5759 5756 5752 5750 5748 5746 5745 5743 5740 5738 5737 5735 5733 5731 5728 5726 5722 5719 5717 5716 5714 5712 5710
5813 5810 5807 5804 5801 5798 5794 5791 5787 5784 5781 5777 5774 5771 5768 5765 5763 5760 5758 5755 5751 5748 5746 5743 5742 5740 5739 5737 5734 5733 5731 5729 5727 5724 5722 5718 5715 5712 5711 5709 5708 5706
5809 5806 5803 5800 5797 5793 5790 5786 5783 5779 5776 5772 5769 5766 5763 5760 5758 5755 5753 5750 5747 5745 5742 5740 5738 5737 5735 5733 5730 5729 5727 5725 5723 5720 5718 5714 5711 5708 5707 5705 5703 5701
5805 5802 5799 5796 5792 5789 5785 5782 5779 5775 5771 5767 5764 5761 5758 5755 5753 5751 5748 5746 5744 5741 5738 5736 5734 5733 5731 5729 5727 5725 5723 5721 5719 5717 5714 5711 5707 5704 5702 5700 5698 5697
5800 5797 5794 5791 5788 5784 5781 5778 5774 5770 5766 5762 5759 5756 5754 5751 5749 5747 5744 5742 5740 5738 5735 5733 5731 5729 5728 5725 5723 5722 5720 5718 5716 5714 5711 5708 5704 5701 5699 5696 5693 5692
5795 5793 5789 5787 5784 5780 5777 5773 5769 5765 5762 5758 5755 5752 5750 5748 5745 5743 5741 5738 5736 5735 5732 5730 5728 5726 5724 5722 5720 5718 5717 5715 5712 5710 5708 5705 5702 5699 5696 5693 5690 5688
5791 5788 5785 5783 5780 5776 5772 5769 5765 5761 5758 5754 5751 5748 5746 5744 5742 5739 5737 5735 5733 5731 5729 5727 5725 5723 5721 5719 5717 5715 5714 5712 5709 5707 5705 5702 5699 5696 5693 5690 5687 5685
5786 5783 5781 5778 5775 5772 5768 5764 5760 5757 5754 5750 5747 5744 5742 5740 5738 5736 5734 5732 5730 5728 5726 5724 5722 5720 5718 5716 5714 5713 5711 5709 5706 5704 5702 5699 5696 5693 5690 5688 5685 5683
5781 5779 5776 5773 5770 5767 5764 5760 5756 5753 5749 5746 5743 5741 5739 5736 5734 5732 5730 5728 5727 5725 5724 5722 5719 5718 5716 5714 5712 5710 5708 5706 5704 5702 5699 5697 5694 5691 5688 5686 5683 5681
5777 5774 5771 5769 5766 5762 5759 5756 5752 5749 5745 5742 5740 5738 5735 5733 5730 5728 5726 5725 5724 5722 5721 5719 5717 5715 5713 5711 5709 5707 5705 5703 5701 5700 5697 5694 5691 5689 5686 5684 5681 5679
Wind_Speed
32 33 33 32 32 32 32 33 34 35 36 37 38 39 41 43 43 43 43 42 39 36 35 35 35 34 34 34 33 34 36 38 39 39 38 37 38 41 42 43 45 46
33 34 34 33 33 32 33 34 35 35 36 37 38 40 41 43 43 42 42 41 39 37 36 36 35 34 34 34 34 34 35 37 39 40 39 39 38 39 40 41 44 46
34 34 34 34 33 33 34 34 35 36 36 37 38 40 42 43 43 42 41 40 39 37 36 36 36 34 34 34 34 34 34 36 39 41 41 40 40 40 40 41 42 44
35 35 35 34 34 34 35 35 36 37 37 38 39 40 42 43 43 42 40 39 38 37 36 36 35 34 34 34 34 34 34 34 36 39 41 41 41 41 41 42 42 43
36 36 35 35 35 35 36 37 37 38 38 39 40 41 42 44 44 42 40 39 38 36 36 35 34 34 34 34 35 35 35 34 34 36 39 40 40 41 42 43 43 43
37 37 36 36 36 36 37 38 39 39 39 40 41 42 43 44 44 42 40 39 38 37 36 35 34 34 33 33 34 35 36 36 35 35 37 38 39 40 42 44 45 45
38 39 38 37 37 37 38 39 40 41 41 42 42 43 44 44 45 43 40 38 38 37 36 35 34 34 33 33 33 35 36 37 37 36 36 37 37 37 39 42 45 47
40 40 39 38 38 38 39 41 42 42 43 43 44 44 44 45 45 44 41 39 38 37 36 35 35 34 34 33 34 35 36 36 37 37 36 35 35 36 37 39 42 46
41 41 40 39 39 40 41 42 43 44 45 45 45 45 45 45 45 45 43 40 38 38 37 36 36 36 35 35 35 35 35 35 35 36 36 34 34 34 35 37 39 42
42 42 41 41 40 41 42 43 45 46 46 46 46 46 46 46 46 46 44 41 39 39 38 37 37 37 36 36 36 35 35 35 35 35 36 35 34 34 35 35 36 38
43 43 43 42 42 43 44 45 47 48 48 47 46 46 46 46 47 47 45 42 39 39 39 38 37 37 36 36 35 35 34 34 34 35 35 36 35 34 35 35 36 36
44 44 44 44 44 44 45 47 48 49 49 48 47 47 47 47 47 47 46 42 40 40 39 38 37 36 35 35 34 34 33 33 34 35 35 36 36 36 35 35 36 37
44 45 45 45 45 46 47 48 50 50 50 49 48 47 47 48 48 47 45 42 41 40 39 38 37 36 34 34 34 33 33 33 33 34 34 35 36 36 36 35 34 35
46 46 46 46 46 47 48 49 50 51 50 50 49 48 48 48 47 46 44 42 41 41 39 37 36 35 34 34 34 33 33 33 33 34 34 35 36 36 36 34 32 32
46 46 46 46 47 47 48 50 51 51 51 50 49 49 48 47 45 43 42 42 42 41 39 37 35 34 34 34 34 33 32 33 33 33 34 35 36 35 34 33 31 31
47 47 47 47 47 48 49 50 52 52 51 50 49 49 48 46 43 41 40 41 42 40 38 37 35 33 33 34 34 33 32 32 32 33 33 34 35 34 32 31 31 31
47 47 47 47 48 49 50 51 52 52 51 50 49 49 47 44 41 39 39 40 41 39 37 36 35 33 32 33 34 32 31 31 32 32 33 34 34 32 30 30 31 30
47 47 46 47 48 49 51 52 52 51 50 49 48 47 45 42 40 39 39 40 39 37 35 35 35 32 31 32 33 31 30 31 31 32 33 33 32 30 28 28 28 27
47 46 46 47 49 50 52 52 52 51 49 48 47 45 43 41 40 40 39 39 38 36 34 34 33 31 30 31 31 30 29 29 30 31 32 33 31 29 27 27 25 24
46 46 47 48 49 51 52 52 51 50 49 48 47 44 42 40 40 39 39 38 36 34 32 32 31 30 30 30 30 30 29 29 30 31 31 32 31 28 27 26 24 22
47 47 48 49 50 51 52 51 50 49 48 47 46 43 41 40 39 39 38 37 34 32 30 30 30 30 30 30 30 30 29 29 30 30 31 31 30 27 26 26 25 23
47 48 48 49 50 51 50 49 48 47 47 47 45 43 40 38 38 38 37 36 33 30 29 29 30 31 31 30 30 30 29 29 30 30 30 31 30 27 24 24 25 24
48 47 48 49 49 49 48 47 47 46 46 46 45 42 39 37 37 37 36 35 32 30 29 30 30 31 31 30 30 30 29 30 31 30 31 31 31 28 24 22 23 23
47 47 47 48 48 47 46 46 46 45 45 45 44 41 38 36 36 36 35 34 32 29 29 30 30 30 29 29 29 29 29 30 31 31 31 32 32 30 26 21 20 21
47 46 46 46 45 45 45 44 44 44 43 43 41 38 36 35 35 35 34 32 30 28 28 28 29 29 28 27 27 27 28 30 30 30 31 32 32 31 27 22 20 19
45 45 45 44 44 43 43 43 43 42 42 41 38 35 33 34 34 33 32 30 29 27 27 27 28 28 27 27 26 26 27 29 29 29 30 31 32 31 28 23 20 18
Wind_Direction
317 315 314 314 315 318 319 319 319 318 318 317 317 316 315 315 316 317 317 315 311 305 299 296 293 291 289 287 284 282 280 279 278 276 274 271 268 265 262 258 255 253
315 314 313 313 314 316 317 318 318 318 318 318 317 316 315 315 316 317 317 315 311 306 300 296 294 292 290 289 288 286 283 281 279 277 275 272 269 266 265 262 259 256
314 313 312 312 313 314 316 317 317 318 318 318 318 317 315 315 316 318 317 314 311 306 301 297 295 293 293 293 293 292 289 285 282 280 277 273 269 266 265 264 261 259
313 312 312 311 312 313 315 316 317 318 318 319 318 317 316 316 317 318 317 315 311 307 302 298 296 295 296 298 299 298 295 292 287 284 280 276 271 267 264 262 261 259
312 312 312 312 312 313 314 316 318 318 318 318 319 318 317 316 317 318 318 315 311 307 302 298 296 296 298 301 302 301 299 296 293 289 285 281 275 269 264 261 259 257
312 312 311 312 312 312 314 317 318 318 318 318 319 319 318 317 317 318 318 315 311 307 302 298 296 297 300 302 303 301 298 296 294 290 287 283 278 272 266 262 259 257
312 312 312 311 312 312 314 317 318 319 318 318 319 319 318 317 317 317 316 314 310 305 300 296 294 295 298 301 302 300 297 295 293 291 287 283 278 274 269 264 260 257
311 312 312 311 312 313 314 316 318 318 319 319 319 319 318 317 316 315 315 313 310 304 299 295 293 294 296 299 301 301 298 295 293 291 288 284 279 274 271 267 261 257
311 312 312 312 313 313 314 316 317 319 319 319 319 319 318 316 315 314 314 313 310 305 299 295 294 294 295 297 299 300 299 296 293 291 287 285 282 276 272 270 265 258
311 313 313 313 313 313 314 315 317 319 320 319 319 318 317 315 314 312 312 312 310 305 300 296 295 295 296 297 298 299 299 297 294 291 286 282 281 279 275 271 267 261
312 313 313 313 314 314 315 316 317 319 319 319 318 317 316 315 313 311 311 311 309 305 300 298 297 297 297 298 299 299 300 299 296 293 289 281 277 277 276 273 268 262
314 314 314 314 315 315 316 317 318 319 319 319 318 317 316 314 312 311 311 311 308 305 301 299 300 300 299 300 301 301 301 301 299 297 295 289 282 280 281 279 272 264
315 316 315 315 315 316 317 317 318 318 318 318 318 317 316 314 312 311 311 309 307 304 302 301 302 302 301 302 303 303 303 303 302 300 298 295 290 287 287 287 279 269
316 316 316 315 315 316 317 318 318 317 317 318 318 318 316 314 312 311 310 308 306 305 303 302 302 301 301 302 303 304 304 304 304 303 301 298 293 288 288 289 284 274
316 316 315 315 315 316 316 317 317 317 318 318 318 317 315 314 312 311 310 307 307 307 305 303 301 300 301 302 303 304 305 306 306 305 303 301 295 289 287 289 286 278
315 314 314 315 315 315 315 316 316 317 318 319 318 317 315 313 312 311 309 308 308 308 306 303 300 299 300 301 303 304 306 308 308 306 305 303 298 291 287 289 287 279
313 313 314 314 314 314 315 317 318 319 319 318 317 316 314 313 312 311 309 309 309 309 306 302 299 299 301 301 302 305 308 310 310 309 309 307 301 294 288 287 284 278
312 312 312 312 313 315 317 318 319 318 318 317 316 315 314 313 312 312 311 311 311 309 306 301 299 300 301 301 303 306 310 312 312 313 314 312 305 296 291 288 283 276
311 311 311 312 314 316 318 318 318 317 316 316 315 314 314 313 313 313 313 312 311 309 305 302 300 301 302 302 304 308 311 313 315 317 318 316 310 300 295 293 284 274
310 310 312 313 315 317 317 317 317 316 316 316 315 314 313 313 314 314 314 313 310 308 305 302 302 302 303 304 306 309 313 315 317 319 321 320 314 304 299 297 288 275
310 311 313 314 316 317 317 316 316 316 316 316 314 313 313 313 314 314 314 312 310 308 306 304 303 304 305 307 308 311 314 315 317 320 323 323 317 305 301 303 296 280
311 312 314 315 316 316 316 316 316 316 316 315 313 312 312 313 313 312 313 311 309 308 307 306 306 307 308 309 310 312 314 315 316 319 323 324 319 307 304 309 305 290
311 313 314 314 315 316 316 316 316 316 316 315 312 310 311 311 310 311 312 310 308 308 309 309 309 310 310 310 310 312 315 314 316 319 323 325 322 313 309 313 313 303
312 312 313 314 315 315 315 315 315 315 315 314 312 310 310 310 309 309 310 309 307 308 309 310 311 311 311 311 313 315 315 314 316 319 322 324 325 319 314 314 314 309
312 312 312 313 314 314 314 314 314 315 314 313 311 310 310 310 308 308 308 307 306 307 309 311 312 313 313 314 316 318 317 315 316 319 320 322 324 322 318 315 312 308
310 310 312 313 313 314 314 314 314 315 314 312 311 311 311 310 309 308 306 306 305 306 309 311 313 314 315 318 321 321 319 317 316 318 319 319 323 324 320 317 314 307